Location: Lawrence
(38.9720°N, 95.2350°W)
Time: 00:41:53
(UTC-05:00)

ISS - Visible Passes

Search period start: 25 March 2019 00:00
Search period end: 04 April 2019 00:00
Orbit: 408 x 411 km, 51.6° (Epoch: 25 March)

Date Brightness Start Highest point End Pass type
(mag) Time Alt. Az. Time Alt. Az. Time Alt. Az.
25 Mar -1.7 20:25:26 10° W 20:28:16 25° NNW 20:31:05 10° NNE visible
25 Mar -0.5 22:05:25 10° NNW 22:05:31 10° NNW 22:05:31 10° NNW visible
26 Mar -0.9 21:13:27 10° NW 21:14:49 12° NNW 21:16:10 10° N visible
27 Mar -1.1 20:21:52 10° WNW 20:23:54 15° NNW 20:25:56 10° NNE visible
29 Mar -0.9 20:18:44 10° NNW 20:19:38 11° N 20:20:32 10° N visible
29 Mar -0.7 21:56:39 10° N 21:56:57 10° N 21:56:57 10° N visible
31 Mar -1.1 21:51:10 10° NNW 21:52:22 14° N 21:52:22 14° N visible
01 Apr -1.2 21:00:53 10° N 21:02:10 12° NNE 21:03:27 10° NE visible
01 Apr -0.2 22:36:22 10° NW 22:36:26 10° NW 22:36:26 10° NW visible
02 Apr -1.7 21:45:52 10° NNW 21:47:45 21° N 21:47:45 21° N visible
03 Apr -1.7 20:55:26 10° NNW 20:57:44 17° NNE 20:59:06 14° NE visible
03 Apr -0.5 22:31:22 10° NW 22:31:51 13° NW 22:31:51 13° NW visible
